Location: Oshawa
(43.9000°N, 78.8670°W)
Time: 23:46:32
(UTC-04:00)

Iridium 98 - Visible Passes

Search period start: 21 April 2015 00:00
Search period end: 01 May 2015 00:00
Orbit: 776 x 779 km, 86.4° (Epoch: 21 April)

Date Brightness Start Highest point End Pass type
(mag) Time Alt. Az. Time Alt. Az. Time Alt. Az.
21 Apr 5.4 22:14:25 10° N 22:19:40 78° E 22:21:17 45° SSE visible
21 Apr 8.0 23:57:16 10° NW 23:59:47 13° WNW 00:01:47 11° W visible
22 Apr 6.0 21:41:04 10° N 21:46:01 43° E 21:48:12 28° SE visible
22 Apr 7.4 23:22:23 10° NNW 23:26:31 24° W 23:28:42 18° WSW visible
23 Apr 6.7 21:08:02 10° NNE 21:12:14 25° ENE 21:15:08 16° ESE visible
23 Apr 6.6 22:48:17 10° NNW 22:53:11 41° W 22:55:38 25° SW visible
24 Apr 5.6 22:14:30 10° N 22:19:44 75° W 22:22:35 27° S visible
25 Apr 5.6 21:41:00 10° N 21:46:11 61° E 21:49:34 22° SSE visible
25 Apr 7.9 23:23:07 10° NW 23:26:27 17° W 23:29:34 10° WSW visible
26 Apr 6.3 21:07:45 10° NNE 21:12:29 34° E 21:16:34 13° SE visible
26 Apr 7.2 22:48:39 10° NNW 22:53:09 29° W 22:57:04 12° SW visible
27 Apr 7.0 20:34:55 10° NNE 20:38:37 20° ENE 20:42:28 10° ESE visible
27 Apr 6.2 22:14:41 10° NNW 22:19:46 52° W 22:24:05 14° SSW visible
28 Apr 5.5 21:41:02 10° N 21:46:17 87° E 21:51:08 12° S visible
28 Apr 8.3 23:24:26 10° NW 23:26:19 12° WNW 23:27:54 10° W visible
29 Apr 5.8 21:07:36 10° N 21:12:40 48° E 21:17:43 10° SSE visible
29 Apr 7.8 22:49:10 10° NNW 22:53:05 21° W 22:56:50 10° SW visible
30 Apr 6.9 22:14:57 10° NNW 22:19:45 37° W 22:24:28 10° SSW visible
